NOAA 16 DEB, 42422

Orbit data source: Space-Track

NOAA 16 DEB, 42422 is space debris in SSO originally from a launch on Thu, 21 Sep 2000 UTC launched from the Air Force Western Test Range (AFWTR). Debris objects in space refer to the collection of defunct objects orbiting the Earth. Examples of debris include non-operational satellites, rocket bodies, and fragments generated from explosions, collisions, or faulty payload assembly.

Loading next visibility...
Identifier
42422, 2000-055TS
Orbit
SSO
Country
Flag of USUS
Related business
Manufacturer
Unknown
Mission
Spacecraft
Bus & Motor
Unknown
Mass
Unknown
Launch date (UTC)
2000-09-21 (25 years ago)
Launch vehicle
Unknown
Launch site
Air Force Western Test Range (AFWTR)
Object type
Payload
Rocket body
Debris
Shape & HBR
Unknown shape, 0.1 m
Radar Cross Section
Small (<0.1 m²)

Expand to show TLE details & history
Last TLE update: 2 days ago

TLE from 2 days ago
0 NOAA 16 DEB
1 42422U 00055TS  25291.50730886  .00009093  00000-0  34018-2 0  9999
2 42422  98.7790  29.7406 0011070 275.3285  84.6635 14.31963505492380
Epoch: 2025-10-18T12:10Z
TLE epoch observation values (Epoch: 2025-10-18T12:10:31.485Z)
Latitude
Longitude
179.87208°
Altitude
787.375 km
Speed
7.46 km/s
True Right ascension
01h 58m 57s
True Declination
0° 00' 00"
Sunlit
Object was in full shadow at epoch
Visualization orbit readout
Latitude
Unknown
Longitude
Unknown
Altitude
Unknown
Speed
Unknown
Apparent Right ascension
Unknown
Apparent Declination
Unknown
Sunlit
N/A
Visualization observer readout
Local Sidereal Time
11:36:07
Azimuth
Unknown
Elevation
Unknown
Doppler factor
Unknown
Orbital elements
Apogee altitude
790.248 km
Perigee altitude
774.394 km
Semi-major axis
7,160.458 km
Eccentricity
0.00111
Inclination
98.779°
RAAN
29.7406°
Arg. of periapsis
275.3285°
True anomaly
84.78982°
Mean anomaly
84.6635°
Eccentric anomaly
84.72666°
Mean motion
3.58205 °/min
Orbital period
100.5 mins
BSTAR
0.0034018
Loading maneuver chart data...
Computing Atmospheric mass density...
Loading historical data...
Loading historical data...
Loading historical data...
Loading historical data...
Loading historical data...
Loading historical data...
Loading historical data...

Documentation

Showing up to 5 results
|